Lid_Strength_Index
1 1 -0 2 7 8 10 9 7 8 7 5 6 5 6 6 7 9 3 4 4 3 3 1 0 -0 -0 -0 0 0 0 -0 -1 -1 -1 -1 -1 -1 -1 -1 -1 -1 -1 -1 -1 -1 -1 -1 -1
1 1 1 3 9 11 10 8 8 7 6 5 5 5 6 7 5 5 4 4 4 4 3 2 1 -0 -0 -1 -1 -1 -0 0 -0 -0 -1 -1 -1 -1 -1 -1 -1 -1 -1 -1 -1 -2 -2 -1 -1
2 3 5 6 8 11 10 8 7 7 5 5 6 5 5 6 5 4 4 3 3 3 3 2 1 1 1 0 0 0 -0 -0 -1 -1 -0 -1 -1 -1 -1 -1 -1 -1 -1 -2 -2 -2 -2 -2 -2
2 3 5 9 10 9 9 7 7 7 7 6 6 6 6 4 4 4 4 3 3 4 3 3 2 2 1 1 1 1 0 0 -0 -1 -1 -1 -0 -1 -1 -1 -1 -1 -1 -2 -2 -2 -2 -2 -2
3 5 9 10 10 8 8 7 7 7 7 7 6 7 6 6 4 4 4 4 4 4 4 4 3 3 3 2 2 2 1 1 1 0 -0 -1 -2 0 -1 -1 -1 -1 -1 -2 -2 -2 -2 -2 -2
6 6 10 11 10 9 8 7 7 7 7 8 8 7 7 5 5 5 4 4 4 4 4 4 5 4 4 3 3 3 2 2 2 1 1 -0 -1 -2 -0 0 -1 -1 -1 -1 -2 -2 -2 -2 -2
7 8 10 11 10 10 9 7 8 8 8 8 7 9 7 6 5 5 4 4 4 4 5 5 5 5 5 5 4 4 3 3 2 2 1 1 0 -1 -1 -0 0 -1 -1 -1 -2 -2 -1 -2 -2
6 7 11 10 11 10 9 8 8 8 8 7 6 9 8 6 5 5 4 4 5 5 5 5 5 4 4 4 4 5 4 4 3 3 2 2 1 1 -0 -1 -1 -0 -1 -1 -1 -1 -1 -2 -1
8 10 11 11 11 10 9 9 8 8 9 8 7 8 7 6 6 5 5 5 5 6 5 5 5 5 5 5 5 5 4 4 3 3 3 2 1 1 0 -1 -1 -1 -1 -1 -1 -1 -1 -1 -1
8 10 10 10 10 10 9 9 9 9 9 9 8 7 7 7 6 6 6 6 6 6 6 5 5 5 5 5 4 4 4 3 3 2 2 2 2 1 1 1 0 -1 0 1 -1 -1 -1 -0 -1
10 11 11 10 9 9 10 10 9 9 10 8 8 7 7 7 7 6 6 6 6 6 5 6 6 6 5 5 5 4 4 3 2 2 2 2 2 2 1 1 -0 -1 0 -1 -1 -1 -0 -0 -0
11 10 10 10 9 9 10 9 10 9 8 8 7 7 7 8 7 6 6 6 6 6 6 6 6 6 5 5 5 5 4 3 3 2 2 2 2 2 2 1 0 -1 -1 -1 -1 -0 0 1 0
11 10 10 9 9 9 9 10 10 9 8 7 8 8 8 7 7 6 6 6 6 6 6 6 7 6 5 5 5 4 4 3 2 2 2 2 2 2 2 1 1 -1 -1 -1 -0 0 1 1 1
10 10 10 10 10 10 11 10 11 9 9 9 9 8 7 7 7 6 7 6 7 7 7 7 7 6 5 5 5 5 4 3 2 2 2 2 2 2 2 2 1 -0 -0 0 0 1 1 2 1
10 11 10 10 10 11 11 11 12 9 10 10 9 8 8 8 7 7 6 7 7 7 8 8 6 5 5 5 5 4 3 3 2 2 2 2 2 2 2 2 1 -0 -0 1 1 1 0 1 2
11 12 12 11 11 10 11 11 10 10 10 9 9 9 8 8 8 7 7 7 7 8 8 7 6 6 5 6 5 4 3 3 2 3 3 3 3 3 3 3 1 -1 1 0 1 1 2 2 2
12 11 13 12 10 11 12 11 9 10 10 10 9 9 9 8 8 7 7 7 8 9 8 7 6 6 6 5 5 4 3 3 3 2 3 2 2 2 2 3 1 1 3 0 1 2 2 3 2
12 12 13 13 12 12 12 12 9 9 9 10 9 9 9 8 8 8 8 8 9 9 8 7 6 6 6 5 5 4 4 3 2 2 2 2 3 2 2 2 1 2 3 1 1 3 2 2 3
12 13 13 12 12 14 12 12 11 9 10 10 10 9 9 9 7 8 9 9 9 9 8 7 6 6 6 6 6 6 6 4 3 2 2 2 2 2 2 2 3 3 4 1 2 3 3 3 3
13 13 13 12 14 14 13 13 11 11 11 11 11 10 10 9 9 10 10 10 10 9 8 6 6 6 7 7 6 6 6 4 2 2 1 2 2 2 2 3 4 3 2 2 2 2 3 4 3
13 14 14 14 13 14 15 11 11 12 12 11 10 10 10 10 9 10 10 10 10 9 7 7 7 6 6 6 6 6 4 3 3 2 1 2 2 1 2 3 4 4 2 1 1 2 4 4 4
14 13 14 15 14 15 14 18 14 13 12 12 11 11 10 10 9 10 10 11 10 8 7 7 6 7 7 6 7 6 5 5 4 2 2 3 2 2 2 3 3 2 2 1 1 2 3 3 4
14 14 14 15 15 16 16 16 14 14 13 12 11 11 11 10 10 11 11 11 10 9 7 7 6 7 7 7 7 6 4 4 3 3 2 2 2 2 2 2 2 0 0 0 1 2 3 3 4
13 15 15 15 16 17 18 17 15 12 13 13 12 11 11 11 11 11 11 11 10 9 7 7 6 7 7 7 7 7 5 5 4 4 3 1 1 2 2 1 0 -0 0 1 2 2 3 3 4
14 15 17 19 18 17 18 18 13 12 13 13 11 11 11 11 12 12 13 12 10 9 8 7 7 7 7 8 7 7 6 5 5 5 4 3 1 1 1 0 1 1 1 0 1 2 2 3 4
15 15 16 21 19 18 18 18 13 13 13 12 12 10 11 12 12 12 12 12 10 10 9 8 7 7 7 7 7 7 7 7 5 5 5 5 4 3 0 1 1 0 1 0 0 1 3 3 4
16 17 15 18 21 19 16 15 13 14 14 13 12 12 11 11 12 12 13 12 11 10 9 9 8 8 8 8 7 7 8 7 6 5 4 5 6 5 3 1 2 2 2 1 1 2 2 3 3
15 15 18 17 19 20 17 18 14 14 14 13 12 12 11 11 12 12 13 13 11 10 9 9 8 8 8 8 8 7 8 8 7 6 6 5 5 5 6 5 5 5 5 5 4 4 3 4 4
17 17 17 16 17 18 19 15 13 14 14 13 12 11 11 11 11 12 13 13 12 10 10 9 9 8 8 9 8 8 8 7 8 7 7 7 5 5 6 6 6 6 6 7 7 7 6 6 6
15 15 15 16 19 18 19 15 13 14 14 14 13 12 11 11 11 12 13 13 12 11 10 9 9 8 8 9 9 9 8 8 8 8 7 7 7 6 6 6 6 6 6 7 7 8 7 8 8